Погода в Корделевке

Украина / Винницкая область     49°31′18″N   28°32′47″E
В апреле 2022 года жителям России запретили посещать сайт meteo.paraplan.net по решению Генеральной прокуратуры. Аудитория сайта уменьшилась в 10 раз. Владельцы сайта не видят смысла в поддержке погодного сервера в таких условиях. Сайт будет закрыт в октябре.
темп.,
°C
ветер,
м/с
пор.,
м/с
влажн.,
%
обл.,
%
осадки,
мм/ч
давл.,
гПа
погр.,
м
29 сентября, чт
чт2900:00+9юз229012 0.0 100711
03:00+9ююв2286100 0.0 100717
06:00+8ююв3692100 0.0 1008107
09:00+11юв4984100 0.0 1008241
12:00+16ююв6106672 0.0 1007552
15:00+19ююв686178 0.0 10061114
18:00+17ююв4874100 0.0 1006194
21:00+14ююв338499 0.1 100634
30 сентября, пт
пт3000:00+13с2292100 1.1 100840
03:00+12зсз11910 1.1 100910
06:00+11з11925 0.0 101110
09:00+14зсз238487 0.0 1012144
12:00+18з2369100 0.0 1013539
15:00+20з2359100 0.0 1013865
18:00+18ююв116899 0.0 101411
21:00+15ююз128243 0.2 101511
1 октября, сб
сб100:00+14ююз498513 0.1 1015164
03:00+13зюз37825 0.1 1016114
06:00+13юз3382100 0.0 101631
09:00+15ююз2577100 0.0 1016155
12:00+20юз5105996 0.0 1015819
15:00+17сз468190 0.5 1014262
18:00+15з51490100 2.5 1014679
21:00+15ююз3392100 2.9 101292
2 октября, вс
вс200:00+14зюз2595100 0.8 1012211
03:00+13зюз31096100 5.4 1011467
06:00+13зюз3797100 0.4 1010271
09:00+13ссз4792100 0.6 1011396
12:00+15ссз5771100 0.0 10111065
15:00+14сз6871100 0.3 10111111
18:00+12сз5978100 0.1 1012635
21:00+11ссз61290100 0.0 1011874
3 октября, пн
пн300:00+10сз81488100 0.0 1011786
03:00+10сз81389100 0.1 1011806
06:00+9сз91689100 0.0 1007924
09:00+9зсз91584100 0.0 1007853
12:00+11зсз10137431 0.0 10061143
15:00+13зсз101367100 0.2 10061546
18:00+9зсз8137899 0.6 10071171
21:00+9з71284100 0.8 1008985